Year,Month,Day,Hour,Minute,Value (Times are PST for temperature in C)
2009,06,04,00,00,16.10
2009,06,04,00,01,16.10
2009,06,04,00,02,16.00
2009,06,04,00,03,16.00
2009,06,04,00,04,16.00
2009,06,04,00,05,15.90
2009,06,04,00,06,15.90
2009,06,04,00,07,15.90
2009,06,04,00,08,15.80
2009,06,04,00,09,15.80
2009,06,04,00,10,15.80
2009,06,04,00,11,15.70
2009,06,04,00,12,15.70
2009,06,04,00,13,15.70
2009,06,04,00,14,15.70
2009,06,04,00,15,15.60
2009,06,04,00,16,15.60
2009,06,04,00,17,15.60
2009,06,04,00,18,15.60
2009,06,04,00,19,15.50
2009,06,04,00,20,15.50
2009,06,04,00,21,15.50
2009,06,04,00,22,15.50
2009,06,04,00,23,15.50
2009,06,04,00,24,15.50
2009,06,04,00,25,15.50
2009,06,04,00,26,15.40
2009,06,04,00,27,15.50
2009,06,04,00,28,15.40
2009,06,04,00,29,15.40
2009,06,04,00,30,15.40
2009,06,04,00,31,15.40
2009,06,04,00,32,15.40
2009,06,04,00,33,15.40
2009,06,04,00,34,15.40
2009,06,04,00,35,15.40
2009,06,04,00,36,15.40
2009,06,04,00,37,15.40
2009,06,04,00,38,15.40
2009,06,04,00,39,15.40
2009,06,04,00,40,15.40
2009,06,04,00,41,15.40
2009,06,04,00,42,15.40
2009,06,04,00,43,15.40
2009,06,04,00,44,15.40
2009,06,04,00,45,15.40
2009,06,04,00,46,15.40
2009,06,04,00,47,15.40
2009,06,04,00,48,15.40
2009,06,04,00,49,15.40
2009,06,04,00,50,15.40
2009,06,04,00,51,15.40
2009,06,04,00,52,15.40
2009,06,04,00,53,15.40
2009,06,04,00,54,15.40
2009,06,04,00,55,15.40
2009,06,04,00,56,15.30
2009,06,04,00,57,15.30
2009,06,04,00,58,15.30
2009,06,04,00,59,15.20
2009,06,04,01,00,15.20
2009,06,04,01,01,15.10
2009,06,04,01,02,15.00
2009,06,04,01,03,15.00
2009,06,04,01,04,15.00
2009,06,04,01,05,15.00
2009,06,04,01,06,15.00
2009,06,04,01,07,15.00
2009,06,04,01,08,15.00
2009,06,04,01,09,14.90
2009,06,04,01,10,14.80
2009,06,04,01,11,14.80
2009,06,04,01,12,14.70
2009,06,04,01,13,14.70
2009,06,04,01,14,14.70
2009,06,04,01,15,14.70
2009,06,04,01,16,14.70
2009,06,04,01,17,14.60
2009,06,04,01,18,14.60
2009,06,04,01,19,14.60
2009,06,04,01,20,14.60
2009,06,04,01,21,14.60
2009,06,04,01,22,14.60
2009,06,04,01,23,14.60
2009,06,04,01,24,14.60
2009,06,04,01,25,14.60
2009,06,04,01,26,14.60
2009,06,04,01,27,14.60
2009,06,04,01,28,14.60
2009,06,04,01,29,14.60
2009,06,04,01,30,14.60
2009,06,04,01,31,14.60
2009,06,04,01,32,14.60
2009,06,04,01,33,14.60
2009,06,04,01,34,14.60
2009,06,04,01,35,14.60
2009,06,04,01,36,14.60
2009,06,04,01,37,14.60
2009,06,04,01,38,14.50
2009,06,04,01,39,14.50
2009,06,04,01,40,14.50
2009,06,04,01,41,14.50
2009,06,04,01,42,14.40
2009,06,04,01,43,14.40
2009,06,04,01,44,14.40
2009,06,04,01,45,14.40
2009,06,04,01,46,14.30
2009,06,04,01,47,14.30
2009,06,04,01,48,14.30
2009,06,04,01,49,14.30
2009,06,04,01,50,14.30
2009,06,04,01,51,14.30
2009,06,04,01,52,14.30
2009,06,04,01,53,14.30
2009,06,04,01,54,14.30
2009,06,04,01,55,14.30
2009,06,04,01,56,14.30
2009,06,04,01,57,14.30
2009,06,04,01,58,14.30
2009,06,04,01,59,14.30
2009,06,04,02,00,14.30
2009,06,04,02,01,14.30
2009,06,04,02,02,14.30
2009,06,04,02,03,14.30
2009,06,04,02,04,14.30
2009,06,04,02,05,14.30
2009,06,04,02,06,14.30
2009,06,04,02,07,14.30
2009,06,04,02,08,14.30
2009,06,04,02,09,14.30
2009,06,04,02,10,14.30
2009,06,04,02,11,14.20
2009,06,04,02,12,14.20
2009,06,04,02,13,14.20
2009,06,04,02,14,14.20
2009,06,04,02,15,14.10
2009,06,04,02,16,14.10
2009,06,04,02,17,14.10
2009,06,04,02,18,14.10
2009,06,04,02,19,14.10
2009,06,04,02,20,14.10
2009,06,04,02,21,14.10
2009,06,04,02,22,14.00
2009,06,04,02,23,14.00
2009,06,04,02,24,13.90
2009,06,04,02,25,13.90
2009,06,04,02,26,13.90
2009,06,04,02,27,13.90
2009,06,04,02,28,13.80
2009,06,04,02,29,13.80
2009,06,04,02,30,13.80
2009,06,04,02,31,13.80
2009,06,04,02,32,13.80
2009,06,04,02,33,13.80
2009,06,04,02,34,13.70
2009,06,04,02,35,13.70
2009,06,04,02,36,13.70
2009,06,04,02,37,13.70
2009,06,04,02,38,13.70
2009,06,04,02,39,13.70
2009,06,04,02,40,13.70
2009,06,04,02,41,13.70
2009,06,04,02,42,13.70
2009,06,04,02,43,13.70
2009,06,04,02,44,13.60
2009,06,04,02,45,13.60
2009,06,04,02,46,13.60
2009,06,04,02,47,13.60
2009,06,04,02,48,13.60
2009,06,04,02,49,13.60
2009,06,04,02,50,13.50
2009,06,04,02,51,13.50
2009,06,04,02,52,13.50
2009,06,04,02,53,13.40
2009,06,04,02,54,13.40
2009,06,04,02,55,13.40
2009,06,04,02,56,13.40
2009,06,04,02,57,13.40
2009,06,04,02,58,13.40
2009,06,04,02,59,13.40
2009,06,04,03,00,13.40
2009,06,04,03,01,13.40
2009,06,04,03,02,13.40
2009,06,04,03,03,13.40
2009,06,04,03,04,13.40
2009,06,04,03,05,13.40
2009,06,04,03,06,13.40
2009,06,04,03,07,13.40
2009,06,04,03,08,13.40
2009,06,04,03,09,13.30
2009,06,04,03,10,13.30
2009,06,04,03,11,13.30
2009,06,04,03,12,13.30
2009,06,04,03,13,13.30
2009,06,04,03,14,13.30
2009,06,04,03,15,13.30
2009,06,04,03,16,13.20
2009,06,04,03,17,13.20
2009,06,04,03,18,13.20
2009,06,04,03,19,13.10
2009,06,04,03,20,13.10
2009,06,04,03,21,13.00
2009,06,04,03,22,13.00
2009,06,04,03,23,13.00
2009,06,04,03,24,13.00
2009,06,04,03,25,12.90
2009,06,04,03,26,12.90
2009,06,04,03,27,12.90
2009,06,04,03,28,12.90
2009,06,04,03,29,12.90
2009,06,04,03,30,12.90
2009,06,04,03,31,12.90
2009,06,04,03,32,12.90
2009,06,04,03,33,12.90
2009,06,04,03,34,12.90
2009,06,04,03,35,12.90
2009,06,04,03,36,12.90
2009,06,04,03,37,12.90
2009,06,04,03,38,13.00
2009,06,04,03,39,12.90
2009,06,04,03,40,12.90
2009,06,04,03,41,12.90
2009,06,04,03,42,12.90
2009,06,04,03,43,13.00
2009,06,04,03,44,13.00
2009,06,04,03,45,13.00
2009,06,04,03,46,13.00
2009,06,04,03,47,13.00
2009,06,04,03,48,13.00
2009,06,04,03,49,13.00
2009,06,04,03,50,13.00
2009,06,04,03,51,13.00
2009,06,04,03,52,13.00
2009,06,04,03,53,13.00
2009,06,04,03,54,12.90
2009,06,04,03,55,12.90
2009,06,04,03,56,12.90
2009,06,04,03,57,12.90
2009,06,04,03,58,12.90
2009,06,04,03,59,12.90
2009,06,04,04,00,12.90
2009,06,04,04,01,12.80
2009,06,04,04,02,12.80
2009,06,04,04,03,12.80
2009,06,04,04,04,12.70
2009,06,04,04,05,12.70
2009,06,04,04,06,12.70
2009,06,04,04,07,12.70
2009,06,04,04,08,12.70
2009,06,04,04,09,12.60
2009,06,04,04,10,12.60
2009,06,04,04,11,12.60
2009,06,04,04,12,12.50
2009,06,04,04,13,12.50
2009,06,04,04,14,12.40
2009,06,04,04,15,12.30
2009,06,04,04,16,12.30
2009,06,04,04,17,12.30
2009,06,04,04,18,12.30
2009,06,04,04,19,12.20
2009,06,04,04,20,12.20
2009,06,04,04,21,12.20
2009,06,04,04,22,12.20
2009,06,04,04,23,12.20
2009,06,04,04,24,12.20
2009,06,04,04,25,12.20
2009,06,04,04,26,12.20
2009,06,04,04,27,12.20
2009,06,04,04,28,12.20
2009,06,04,04,29,12.20
2009,06,04,04,30,12.20
2009,06,04,04,31,12.20
2009,06,04,04,32,12.20
2009,06,04,04,33,12.10
2009,06,04,04,34,12.10
2009,06,04,04,35,12.10
2009,06,04,04,36,12.10
2009,06,04,04,37,12.10
2009,06,04,04,38,12.10
2009,06,04,04,39,12.10
2009,06,04,04,40,12.10
2009,06,04,04,41,12.10
2009,06,04,04,42,12.10
2009,06,04,04,43,12.10
2009,06,04,04,44,12.00
2009,06,04,04,45,12.00
2009,06,04,04,46,12.00
2009,06,04,04,47,12.00
2009,06,04,04,48,12.00
2009,06,04,04,49,12.00
2009,06,04,04,50,12.00
2009,06,04,04,51,12.00
2009,06,04,04,52,12.00
2009,06,04,04,53,12.00
2009,06,04,04,54,12.00
2009,06,04,04,55,12.00
2009,06,04,04,56,12.00
2009,06,04,04,57,12.00
2009,06,04,04,58,12.00
2009,06,04,04,59,12.00
2009,06,04,05,00,12.00
2009,06,04,05,01,12.00
2009,06,04,05,02,12.00
2009,06,04,05,03,12.00
2009,06,04,05,04,12.00
2009,06,04,05,05,12.00
2009,06,04,05,06,12.10
2009,06,04,05,07,12.10
2009,06,04,05,08,12.10
2009,06,04,05,09,12.10
2009,06,04,05,10,12.10
2009,06,04,05,11,12.10
2009,06,04,05,12,12.10
2009,06,04,05,13,12.10
2009,06,04,05,14,12.10
2009,06,04,05,15,12.10
2009,06,04,05,16,12.00
2009,06,04,05,17,12.00
2009,06,04,05,18,11.90
2009,06,04,05,19,11.90
2009,06,04,05,20,11.90
2009,06,04,05,21,11.90
2009,06,04,05,22,11.90
2009,06,04,05,23,11.90
2009,06,04,05,24,12.00
2009,06,04,05,25,12.10
2009,06,04,05,26,12.30
2009,06,04,05,27,12.50
2009,06,04,05,28,12.70
2009,06,04,05,29,12.90
2009,06,04,05,30,13.00
2009,06,04,05,31,13.10
2009,06,04,05,32,13.10
2009,06,04,05,33,13.20
2009,06,04,05,34,13.20
2009,06,04,05,35,13.20
2009,06,04,05,36,13.20
2009,06,04,05,37,13.20
2009,06,04,05,38,13.20
2009,06,04,05,39,13.20
2009,06,04,05,40,13.30
2009,06,04,05,41,13.30
2009,06,04,05,42,13.30
2009,06,04,05,43,13.30
2009,06,04,05,44,13.30
2009,06,04,05,45,13.30
2009,06,04,05,46,13.30
2009,06,04,05,47,13.20
2009,06,04,05,48,13.20
2009,06,04,05,49,13.10
2009,06,04,05,50,13.10
2009,06,04,05,51,13.00
2009,06,04,05,52,12.90
2009,06,04,05,53,12.80
2009,06,04,05,54,12.80
2009,06,04,05,55,12.70
2009,06,04,05,56,12.70
2009,06,04,05,57,12.60
2009,06,04,05,58,12.60
2009,06,04,05,59,12.60
2009,06,04,06,00,12.60
2009,06,04,06,01,12.60
2009,06,04,06,02,12.70
2009,06,04,06,03,12.70
2009,06,04,06,04,12.70
2009,06,04,06,05,12.80
2009,06,04,06,06,12.70
2009,06,04,06,07,12.70
2009,06,04,06,08,12.70
2009,06,04,06,09,12.60
2009,06,04,06,10,12.60
2009,06,04,06,11,12.60
2009,06,04,06,12,12.70
2009,06,04,06,13,12.70
2009,06,04,06,14,12.70
2009,06,04,06,15,12.80
2009,06,04,06,16,12.90
2009,06,04,06,17,13.10
2009,06,04,06,18,13.30
2009,06,04,06,19,13.50
2009,06,04,06,20,13.70
2009,06,04,06,21,13.90
2009,06,04,06,22,14.10
2009,06,04,06,23,14.30
2009,06,04,06,24,14.40
2009,06,04,06,25,14.50
2009,06,04,06,26,14.50
2009,06,04,06,27,14.60
2009,06,04,06,28,14.70
2009,06,04,06,29,14.80
2009,06,04,06,30,14.90
2009,06,04,06,31,15.00
2009,06,04,06,32,15.00
2009,06,04,06,33,15.00
2009,06,04,06,34,15.10
2009,06,04,06,35,15.20
2009,06,04,06,36,15.20
2009,06,04,06,37,15.30
2009,06,04,06,38,15.30
2009,06,04,06,39,15.30
2009,06,04,06,40,15.40
2009,06,04,06,41,15.50
2009,06,04,06,42,15.60
2009,06,04,06,43,15.70
2009,06,04,06,44,15.90
2009,06,04,06,45,16.10
2009,06,04,06,46,16.30
2009,06,04,06,47,16.50
2009,06,04,06,48,16.70
2009,06,04,06,49,16.90
2009,06,04,06,50,17.10
2009,06,04,06,51,17.20
2009,06,04,06,52,17.30
2009,06,04,06,53,17.50
2009,06,04,06,54,17.60
2009,06,04,06,55,17.70
2009,06,04,06,56,17.80
2009,06,04,06,57,17.80
2009,06,04,06,58,17.90
2009,06,04,06,59,18.10
2009,06,04,07,00,18.20
2009,06,04,07,01,18.40
2009,06,04,07,02,18.50
2009,06,04,07,03,18.70
2009,06,04,07,04,18.80
2009,06,04,07,05,19.00
2009,06,04,07,06,19.10
2009,06,04,07,07,19.20
2009,06,04,07,08,19.30
2009,06,04,07,09,19.40
2009,06,04,07,10,19.50
2009,06,04,07,11,19.60
2009,06,04,07,12,19.70
2009,06,04,07,13,19.80
2009,06,04,07,14,19.80
2009,06,04,07,15,19.80
2009,06,04,07,16,19.90
2009,06,04,07,17,19.90
2009,06,04,07,18,20.00
2009,06,04,07,19,20.00
2009,06,04,07,20,20.10
2009,06,04,07,21,20.10
2009,06,04,07,22,20.20
2009,06,04,07,23,20.30
2009,06,04,07,24,20.30
2009,06,04,07,25,20.40
2009,06,04,07,26,20.40
2009,06,04,07,27,20.50
2009,06,04,07,28,20.60
2009,06,04,07,29,20.60
2009,06,04,07,30,20.70
2009,06,04,07,31,20.70
2009,06,04,07,32,20.80
2009,06,04,07,33,20.80
2009,06,04,07,34,20.90
2009,06,04,07,35,20.90
2009,06,04,07,36,20.90
2009,06,04,07,37,21.00
2009,06,04,07,38,21.10
2009,06,04,07,39,21.10
2009,06,04,07,40,21.10
2009,06,04,07,41,21.20
2009,06,04,07,42,21.20
2009,06,04,07,43,21.20
2009,06,04,07,44,21.20
2009,06,04,07,45,21.30
2009,06,04,07,46,21.30
2009,06,04,07,47,21.30
2009,06,04,07,48,21.40
2009,06,04,07,49,21.40
2009,06,04,07,50,21.50
2009,06,04,07,51,21.60
2009,06,04,07,52,21.70
2009,06,04,07,53,21.70
2009,06,04,07,54,21.80
2009,06,04,07,55,21.90
2009,06,04,07,56,22.00
2009,06,04,07,57,22.10
2009,06,04,07,58,22.20
2009,06,04,07,59,22.30
2009,06,04,08,00,22.30
2009,06,04,08,01,22.50
2009,06,04,08,02,22.50
2009,06,04,08,03,22.60
2009,06,04,08,04,22.70
2009,06,04,08,05,22.70
2009,06,04,08,06,22.70
2009,06,04,08,07,22.80
2009,06,04,08,08,22.80
2009,06,04,08,09,22.80
2009,06,04,08,10,22.80
2009,06,04,08,11,22.90
2009,06,04,08,12,22.90
2009,06,04,08,13,23.00
2009,06,04,08,14,23.00
2009,06,04,08,15,23.10
2009,06,04,08,16,23.10
2009,06,04,08,17,23.10
2009,06,04,08,18,23.10
2009,06,04,08,19,23.20
2009,06,04,08,20,23.20
2009,06,04,08,21,23.20
2009,06,04,08,22,23.20
2009,06,04,08,23,23.20
2009,06,04,08,24,23.30
2009,06,04,08,25,23.30
2009,06,04,08,26,23.30
2009,06,04,08,27,23.30
2009,06,04,08,28,23.30
2009,06,04,08,29,23.30
2009,06,04,08,30,23.40
2009,06,04,08,31,23.40
2009,06,04,08,32,23.40
2009,06,04,08,33,23.40
2009,06,04,08,34,23.40
2009,06,04,08,35,23.50
2009,06,04,08,36,23.50
2009,06,04,08,37,23.60
2009,06,04,08,38,23.60
2009,06,04,08,39,23.60
2009,06,04,08,40,23.60
2009,06,04,08,41,23.70
2009,06,04,08,42,23.70
2009,06,04,08,43,23.80
2009,06,04,08,44,23.80
2009,06,04,08,45,23.80
2009,06,04,08,46,23.80
2009,06,04,08,47,23.80
2009,06,04,08,48,23.80
2009,06,04,08,49,23.80
2009,06,04,08,50,23.80
2009,06,04,08,51,23.80
2009,06,04,08,52,23.70
2009,06,04,08,53,23.70
2009,06,04,08,54,23.70
2009,06,04,08,55,23.60
2009,06,04,08,56,23.60
2009,06,04,08,57,23.60
2009,06,04,08,58,23.50
2009,06,04,08,59,23.40
2009,06,04,09,00,23.40
2009,06,04,09,01,23.40
2009,06,04,09,02,23.40
2009,06,04,09,03,23.40
2009,06,04,09,04,23.50
2009,06,04,09,05,23.50
2009,06,04,09,06,23.60
2009,06,04,09,07,23.70
2009,06,04,09,08,23.80
2009,06,04,09,09,23.90
2009,06,04,09,10,24.00
2009,06,04,09,11,24.10
2009,06,04,09,12,24.10
2009,06,04,09,13,24.20
2009,06,04,09,14,24.20
2009,06,04,09,15,24.30
2009,06,04,09,16,24.40
2009,06,04,09,17,24.50
2009,06,04,09,18,24.60
2009,06,04,09,19,24.70
2009,06,04,09,20,24.70
2009,06,04,09,21,24.70
2009,06,04,09,22,24.70
2009,06,04,09,23,24.70
2009,06,04,09,24,24.70
2009,06,04,09,25,24.70
2009,06,04,09,26,24.70
2009,06,04,09,27,24.70
2009,06,04,09,28,24.80
2009,06,04,09,29,24.70
2009,06,04,09,30,24.70
2009,06,04,09,31,24.60
2009,06,04,09,32,24.60
2009,06,04,09,33,24.60
2009,06,04,09,34,24.60
2009,06,04,09,35,24.70
2009,06,04,09,36,24.70
2009,06,04,09,37,24.80
2009,06,04,09,38,24.90
2009,06,04,09,39,24.90
2009,06,04,09,40,24.90
2009,06,04,09,41,24.90
2009,06,04,09,42,24.90
2009,06,04,09,43,25.00
2009,06,04,09,44,25.00
2009,06,04,09,45,25.00
2009,06,04,09,46,24.90
2009,06,04,09,47,24.80
2009,06,04,09,48,24.80
2009,06,04,09,49,24.90
2009,06,04,09,50,24.90
2009,06,04,09,51,24.90
2009,06,04,09,52,24.90
2009,06,04,09,53,24.90
2009,06,04,09,54,24.90
2009,06,04,09,55,24.80
2009,06,04,09,56,24.70
2009,06,04,09,57,24.70
2009,06,04,09,58,24.70
2009,06,04,09,59,24.70
2009,06,04,10,00,24.80
2009,06,04,10,01,24.80
2009,06,04,10,02,24.80
2009,06,04,10,03,24.80
2009,06,04,10,04,24.80
2009,06,04,10,05,24.80
2009,06,04,10,06,24.80
2009,06,04,10,07,24.90
2009,06,04,10,08,24.90
2009,06,04,10,09,25.00
2009,06,04,10,10,25.00
2009,06,04,10,11,24.90
2009,06,04,10,12,24.80
2009,06,04,10,13,24.80
2009,06,04,10,14,24.80
2009,06,04,10,15,24.90
2009,06,04,10,16,25.00
2009,06,04,10,17,25.00
2009,06,04,10,18,25.10
2009,06,04,10,19,25.10
2009,06,04,10,20,25.20
2009,06,04,10,21,25.20
2009,06,04,10,22,25.30
2009,06,04,10,23,25.30
2009,06,04,10,24,25.30
2009,06,04,10,25,25.30
2009,06,04,10,26,25.30
2009,06,04,10,27,25.30
2009,06,04,10,28,25.40
2009,06,04,10,29,25.50
2009,06,04,10,30,25.60
2009,06,04,10,31,25.60
2009,06,04,10,32,25.70
2009,06,04,10,33,25.70
2009,06,04,10,34,25.70
2009,06,04,10,35,25.80
2009,06,04,10,36,25.80
2009,06,04,10,37,25.80
2009,06,04,10,38,25.70
2009,06,04,10,39,25.70
2009,06,04,10,40,25.70
2009,06,04,10,41,25.70
2009,06,04,10,42,25.60
2009,06,04,10,43,25.60
2009,06,04,10,44,25.60
2009,06,04,10,45,25.60
2009,06,04,10,46,25.60
2009,06,04,10,47,25.60
2009,06,04,10,48,25.60
2009,06,04,10,49,25.60
2009,06,04,10,50,25.70
2009,06,04,10,51,25.70
2009,06,04,10,52,25.80
2009,06,04,10,53,25.90
2009,06,04,10,54,25.90
2009,06,04,10,55,26.00
2009,06,04,10,56,26.10
2009,06,04,10,57,26.20
2009,06,04,10,58,26.20
2009,06,04,10,59,26.30
2009,06,04,11,00,26.30
2009,06,04,11,01,26.30
2009,06,04,11,02,26.20
2009,06,04,11,03,26.10
2009,06,04,11,04,26.10
2009,06,04,11,05,26.00
2009,06,04,11,06,26.00
2009,06,04,11,07,26.00
2009,06,04,11,08,26.00
2009,06,04,11,09,26.10
2009,06,04,11,10,26.10
2009,06,04,11,11,26.00
2009,06,04,11,12,25.90
2009,06,04,11,13,25.90
2009,06,04,11,14,25.90
2009,06,04,11,15,25.80
2009,06,04,11,16,25.90
2009,06,04,11,17,25.90
2009,06,04,11,18,26.00
2009,06,04,11,19,26.10
2009,06,04,11,20,26.20
2009,06,04,11,21,26.20
2009,06,04,11,22,26.30
2009,06,04,11,23,26.30
2009,06,04,11,24,26.30
2009,06,04,11,25,26.30
2009,06,04,11,26,26.30
2009,06,04,11,27,26.30
2009,06,04,11,28,26.20
2009,06,04,11,29,26.20
2009,06,04,11,30,26.20
2009,06,04,11,31,26.10
2009,06,04,11,32,26.10
2009,06,04,11,33,26.10
2009,06,04,11,34,26.10
2009,06,04,11,35,26.10
2009,06,04,11,36,26.10
2009,06,04,11,37,26.20
2009,06,04,11,38,26.20
2009,06,04,11,39,26.20
2009,06,04,11,40,26.20
2009,06,04,11,41,26.20
2009,06,04,11,42,26.20
2009,06,04,11,43,26.30
2009,06,04,11,44,26.30
2009,06,04,11,45,26.20
2009,06,04,11,46,26.20
2009,06,04,11,47,26.20
2009,06,04,11,48,26.20
2009,06,04,11,49,26.30
2009,06,04,11,50,26.30
2009,06,04,11,51,26.30
2009,06,04,11,52,26.30
2009,06,04,11,53,26.30
2009,06,04,11,54,26.30
2009,06,04,11,55,26.40
2009,06,04,11,56,26.50
2009,06,04,11,57,26.50
2009,06,04,11,58,26.50
2009,06,04,11,59,26.50
2009,06,04,12,00,26.50
2009,06,04,12,01,26.60
2009,06,04,12,02,26.70
2009,06,04,12,03,26.80
2009,06,04,12,04,26.80
2009,06,04,12,05,26.80
2009,06,04,12,06,26.80
2009,06,04,12,07,26.80
2009,06,04,12,08,26.80
2009,06,04,12,09,26.90
2009,06,04,12,10,27.00
2009,06,04,12,11,27.00
2009,06,04,12,12,26.90
2009,06,04,12,13,26.70
2009,06,04,12,14,26.50
2009,06,04,12,15,26.40
2009,06,04,12,16,26.50
2009,06,04,12,17,26.60
2009,06,04,12,18,26.60
2009,06,04,12,19,26.50
2009,06,04,12,20,26.40
2009,06,04,12,21,26.50
2009,06,04,12,22,26.40
2009,06,04,12,23,26.30
2009,06,04,12,24,26.30
2009,06,04,12,25,26.30
2009,06,04,12,26,26.40
2009,06,04,12,27,26.50
2009,06,04,12,28,26.80
2009,06,04,12,29,26.90
2009,06,04,12,30,27.00
2009,06,04,12,31,27.10
2009,06,04,12,32,27.10
2009,06,04,12,33,27.00
2009,06,04,12,34,26.80
2009,06,04,12,35,26.80
2009,06,04,12,36,26.70
2009,06,04,12,37,26.60
2009,06,04,12,38,26.40
2009,06,04,12,39,26.30
2009,06,04,12,40,26.30
2009,06,04,12,41,26.30
2009,06,04,12,42,26.30
2009,06,04,12,43,26.40
2009,06,04,12,44,26.50
2009,06,04,12,45,26.70
2009,06,04,12,46,26.80
2009,06,04,12,47,26.80
2009,06,04,12,48,26.80
2009,06,04,12,49,26.90
2009,06,04,12,50,27.10
2009,06,04,12,51,27.20
2009,06,04,12,52,27.20
2009,06,04,12,53,27.20
2009,06,04,12,54,27.20
2009,06,04,12,55,27.30
2009,06,04,12,56,27.40
2009,06,04,12,57,27.50
2009,06,04,12,58,27.60
2009,06,04,12,59,27.70
2009,06,04,13,00,27.90
2009,06,04,13,01,28.10
2009,06,04,13,02,28.20
2009,06,04,13,03,28.20
2009,06,04,13,04,28.30
2009,06,04,13,05,28.40
2009,06,04,13,06,28.50
2009,06,04,13,07,28.60
2009,06,04,13,08,28.60
2009,06,04,13,09,28.50
2009,06,04,13,10,28.50
2009,06,04,13,11,28.50
2009,06,04,13,12,28.60
2009,06,04,13,13,28.60
2009,06,04,13,14,28.60
2009,06,04,13,15,28.50
2009,06,04,13,16,28.50
2009,06,04,13,17,28.40
2009,06,04,13,18,28.40
2009,06,04,13,19,28.50
2009,06,04,13,20,28.60
2009,06,04,13,21,28.50
2009,06,04,13,22,28.40
2009,06,04,13,23,28.50
2009,06,04,13,24,28.60
2009,06,04,13,25,28.60
2009,06,04,13,26,28.70
2009,06,04,13,27,28.80
2009,06,04,13,28,29.00
2009,06,04,13,29,29.10
2009,06,04,13,30,29.00
2009,06,04,13,31,28.90
2009,06,04,13,32,28.70
2009,06,04,13,33,28.60
2009,06,04,13,34,28.50
2009,06,04,13,35,28.40
2009,06,04,13,36,28.30
2009,06,04,13,37,28.30
2009,06,04,13,38,28.20
2009,06,04,13,39,28.20
2009,06,04,13,40,28.20
2009,06,04,13,41,28.20
2009,06,04,13,42,28.20
2009,06,04,13,43,28.10
2009,06,04,13,44,28.20
2009,06,04,13,45,28.20
2009,06,04,13,46,28.20
2009,06,04,13,47,28.20
2009,06,04,13,48,28.20
2009,06,04,13,49,28.20
2009,06,04,13,50,28.20
2009,06,04,13,51,28.30
2009,06,04,13,52,28.30
2009,06,04,13,53,28.40
2009,06,04,13,54,28.40
2009,06,04,13,55,28.40
2009,06,04,13,56,28.40
2009,06,04,13,57,28.50
2009,06,04,13,58,28.50
2009,06,04,13,59,28.40
2009,06,04,14,00,28.30
2009,06,04,14,01,28.30
2009,06,04,14,02,28.30
2009,06,04,14,03,28.30
2009,06,04,14,04,28.30
2009,06,04,14,05,28.30
2009,06,04,14,06,28.30
2009,06,04,14,07,28.30
2009,06,04,14,08,28.30
2009,06,04,14,09,28.30
2009,06,04,14,10,28.30
2009,06,04,14,11,28.30
2009,06,04,14,12,28.30
2009,06,04,14,13,28.40
2009,06,04,14,14,28.50
2009,06,04,14,15,28.60
2009,06,04,14,16,28.70
2009,06,04,14,17,28.70
2009,06,04,14,18,28.70
2009,06,04,14,19,28.70
2009,06,04,14,20,28.80
2009,06,04,14,21,28.80
2009,06,04,14,22,28.90
2009,06,04,14,23,28.80
2009,06,04,14,24,28.90
2009,06,04,14,25,29.00
2009,06,04,14,26,29.10
2009,06,04,14,27,29.10
2009,06,04,14,28,29.10
2009,06,04,14,29,29.20
2009,06,04,14,30,29.10
2009,06,04,14,31,29.10
2009,06,04,14,32,29.10
2009,06,04,14,33,29.10
2009,06,04,14,34,29.10
2009,06,04,14,35,29.00
2009,06,04,14,36,29.00
2009,06,04,14,37,29.00
2009,06,04,14,38,29.00
2009,06,04,14,39,29.10
2009,06,04,14,40,29.10
2009,06,04,14,41,29.10
2009,06,04,14,42,29.10
2009,06,04,14,43,29.10
2009,06,04,14,44,29.20
2009,06,04,14,45,29.10
2009,06,04,14,46,29.20
2009,06,04,14,47,29.30
2009,06,04,14,48,29.30
2009,06,04,14,49,29.40
2009,06,04,14,50,29.40
2009,06,04,14,51,29.40
2009,06,04,14,52,29.30
2009,06,04,14,53,29.40
2009,06,04,14,54,29.40
2009,06,04,14,55,29.50
2009,06,04,14,56,29.50
2009,06,04,14,57,29.40
2009,06,04,14,58,29.30
2009,06,04,14,59,29.20
2009,06,04,15,00,29.20
2009,06,04,15,01,29.20
2009,06,04,15,02,29.30
2009,06,04,15,03,29.30
2009,06,04,15,04,29.40
2009,06,04,15,05,29.40
2009,06,04,15,06,29.40
2009,06,04,15,07,29.40
2009,06,04,15,08,29.40
2009,06,04,15,09,29.60
2009,06,04,15,10,29.60
2009,06,04,15,11,29.70
2009,06,04,15,12,29.70
2009,06,04,15,13,29.70
2009,06,04,15,14,29.60
2009,06,04,15,15,29.60
2009,06,04,15,16,29.60
2009,06,04,15,17,29.70
2009,06,04,15,18,29.70
2009,06,04,15,19,29.70
2009,06,04,15,20,29.70
2009,06,04,15,21,29.70
2009,06,04,15,22,29.70
2009,06,04,15,23,29.80
2009,06,04,15,24,29.80
2009,06,04,15,25,29.90
2009,06,04,15,26,29.90
2009,06,04,15,27,29.90
2009,06,04,15,28,29.90
2009,06,04,15,29,29.90
2009,06,04,15,30,29.90
2009,06,04,15,31,29.90
2009,06,04,15,32,30.00
2009,06,04,15,33,30.00
2009,06,04,15,34,30.10
2009,06,04,15,35,30.10
2009,06,04,15,36,30.00
2009,06,04,15,37,29.90
2009,06,04,15,38,29.90
2009,06,04,15,39,29.90
2009,06,04,15,40,30.00
2009,06,04,15,41,30.10
2009,06,04,15,42,30.20
2009,06,04,15,43,30.20
2009,06,04,15,44,30.20
2009,06,04,15,45,30.30
2009,06,04,15,46,30.30
2009,06,04,15,47,30.30
2009,06,04,15,48,30.40
2009,06,04,15,49,30.40
2009,06,04,15,50,30.40
2009,06,04,15,51,30.40
2009,06,04,15,52,30.50
2009,06,04,15,53,30.60
2009,06,04,15,54,30.60
2009,06,04,15,55,30.50
2009,06,04,15,56,30.50
2009,06,04,15,57,30.60
2009,06,04,15,58,30.60
2009,06,04,15,59,30.60
2009,06,04,16,00,30.60
2009,06,04,16,01,30.70
2009,06,04,16,02,30.70
2009,06,04,16,03,30.60
2009,06,04,16,04,30.60
2009,06,04,16,05,30.50
2009,06,04,16,06,30.50
2009,06,04,16,07,30.50
2009,06,04,16,08,30.50
2009,06,04,16,09,30.50
2009,06,04,16,10,30.60
2009,06,04,16,11,30.60
2009,06,04,16,12,30.70
2009,06,04,16,13,30.70
2009,06,04,16,14,30.80
2009,06,04,16,15,30.80
2009,06,04,16,16,30.80
2009,06,04,16,17,30.70
2009,06,04,16,18,30.60
2009,06,04,16,19,30.50
2009,06,04,16,20,30.50
2009,06,04,16,21,30.50
2009,06,04,16,22,30.60
2009,06,04,16,23,30.60
2009,06,04,16,24,30.70
2009,06,04,16,25,30.70
2009,06,04,16,26,30.70
2009,06,04,16,27,30.70
2009,06,04,16,28,30.70
2009,06,04,16,29,30.70
2009,06,04,16,30,30.80
2009,06,04,16,31,30.80
2009,06,04,16,32,30.70
2009,06,04,16,33,30.70
2009,06,04,16,34,30.60
2009,06,04,16,35,30.60
2009,06,04,16,36,30.60
2009,06,04,16,37,30.60
2009,06,04,16,38,30.60
2009,06,04,16,39,30.60
2009,06,04,16,40,30.60
2009,06,04,16,41,30.60
2009,06,04,16,42,30.50
2009,06,04,16,43,30.50
2009,06,04,16,44,30.60
2009,06,04,16,45,30.60
2009,06,04,16,46,30.60
2009,06,04,16,47,30.60
2009,06,04,16,48,30.70
2009,06,04,16,49,30.70
2009,06,04,16,50,30.70
2009,06,04,16,51,30.60
2009,06,04,16,52,30.60
2009,06,04,16,53,30.60
2009,06,04,16,54,30.60
2009,06,04,16,55,30.60
2009,06,04,16,56,30.60
2009,06,04,16,57,30.60
2009,06,04,16,58,30.60
2009,06,04,16,59,30.60
2009,06,04,17,00,30.60
2009,06,04,17,01,30.60
2009,06,04,17,02,30.60
2009,06,04,17,03,30.60
2009,06,04,17,04,30.60
2009,06,04,17,05,30.50
2009,06,04,17,06,30.50
2009,06,04,17,07,30.40
2009,06,04,17,08,30.30
2009,06,04,17,09,30.30
2009,06,04,17,10,30.30
2009,06,04,17,11,30.30
2009,06,04,17,12,30.30
2009,06,04,17,13,30.40
2009,06,04,17,14,30.40
2009,06,04,17,15,30.50
2009,06,04,17,16,30.50
2009,06,04,17,17,30.60
2009,06,04,17,18,30.70
2009,06,04,17,19,30.80